DW2213 Weather Reports


time (UTC)temp
F
wind
direction
speed
knots
gust
knots
rain 1hr
in
rain 24hr
in
rain mn
in
humidity
%
barometer
mb
20260903145306 90 146 0.9 6.1 0.00 0.00 0.00 64 1015.7
20260903144305 91 143 2.6 5.2 0.00 0.00 0.00 60 1015.8
20260903143805 91 145 2.6 5.2 0.00 0.00 0.00 59 1015.8
20260903142805 91 120 0.9 6.1 0.00 0.00 0.00 61 1016.0
20260903142306 90 159 0.9 6.1 0.00 0.00 0.00 61 1016.0
20260903141804 91 127 1.7 6.1 0.00 0.00 0.00 60 1016.0
20260903141304 91 131 1.7 5.2 0.00 0.00 0.00 59 1016.1
20260903140805 91 146 1.7 4.3 0.00 0.00 0.00 59 1016.1
20260903140305 91 124 2.6 5.2 0.00 0.00 0.00 56 1016.2
20260903135804 92 119 2.6 7.0 0.00 0.00 0.00 54 1016.2
20260903134804 93 134 1.7 5.2 0.00 0.00 0.00 53 1016.2
20260903134304 93 142 1.7 5.2 0.00 0.00 0.00 51 1016.2
20260903133805 93 118 0.9 5.2 0.00 0.00 0.00 54 1016.2
20260903133305 93 134 0.9 6.1 0.00 0.00 0.00 55 1016.2
20260903132804 93 133 1.7 5.2 0.00 0.00 0.00 55 1016.2
20260903131805 92 139 2.6 5.2 0.00 0.00 0.00 56 1016.4
20260903131305 92 151 0.9 4.3 0.00 0.00 0.00 54 1016.5
20260903130805 92 117 0.9 4.3 0.00 0.00 0.00 56 1016.5
20260903130305 92 137 0.9 4.3 0.00 0.00 0.00 57 1016.5
20260903124805 91 120 0.9 6.1 0.00 0.00 0.00 59 1016.6
20260903124305 91 120 0.9 5.2 0.00 0.00 0.00 60 1016.6
20260903123304 91 140 2.6 5.2 0.00 0.00 0.00 62 1016.7
20260903122805 91 127 1.7 5.2 0.00 0.00 0.00 62 1016.8
20260903122306 91 129 0.0 4.3 0.00 0.00 0.00 61 1016.8
20260903121805 91 19 0.9 4.3 0.00 0.00 0.00 62 1016.8
20260903121305 91 114 0.9 5.2 0.00 0.00 0.00 61 1016.8
20260903120305 91 79 0.0 2.6 0.00 0.00 0.00 60 1016.8
20260903115306 91 114 0.9 2.6 0.00 0.00 0.00 62 1016.9
20260903114805 91 137 0.0 1.7 0.00 0.00 0.00 61 1017.0
20260903114304 91 107 0.0 1.7 0.00 0.00 0.00 61 1017.1
20260903113304 89 104 0.9 2.6 0.00 0.00 0.00 64 1017.1
20260903112805 89 38 0.9 4.3 0.00 0.00 0.00 64 1017.2
20260903112305 89 144 0.9 1.7 0.00 0.00 0.00 64 1017.2
20260903111804 90 150 0.9 4.3 0.00 0.00 0.00 64 1017.4
20260903110805 90 151 0.9 2.6 0.00 0.00 0.00 64 1017.4
20260903110305 89 150 0.0 0.9 0.00 0.00 0.00 66 1017.5
20260903105805 89 146 0.0 1.7 0.00 0.00 0.00 65 1017.6
20260903105306 89 147 0.0 1.7 0.00 0.00 0.00 66 1017.7
20260903104806 89 150 0.9 4.3 0.00 0.00 0.00 66 1017.7
20260903103805 88 137 0.0 0.9 0.00 0.00 0.00 66 1017.8
20260903103304 89 129 0.9 2.6 0.00 0.00 0.00 67 1017.9
20260903102805 88 140 0.9 2.6 0.00 0.00 0.00 67 1018.0
20260903102306 88 143 0.9 2.6 0.00 0.00 0.00 68 1018.0
20260903101804 88 141 0.0 2.6 0.00 0.00 0.00 67 1018.1
20260903100805 88 110 0.0 2.6 0.00 0.00 0.00 70 1018.1
20260903100306 87 17 0.9 1.7 0.00 0.00 0.00 71 1018.0
20260903095805 86 29 0.0 0.0 0.00 0.00 0.00 71 1018.0
20260903094305 85 77 0.0 0.0 0.00 0.00 0.00 73 1018.0
20260903093804 85 77 0.0 0.0 0.00 0.00 0.00 73 1017.9
20260903092805 85 34 0.0 0.0 0.00 0.00 0.00 74 1018.0
20260903091805 85 32 0.0 0.0 0.00 0.00 0.00 73 1017.9
20260903091304 85 30 0.0 0.0 0.00 0.00 0.00 74 1017.9
20260903090804 85 30 0.0 0.0 0.00 0.00 0.00 74 1018.0
20260903090304 84 30 0.0 0.0 0.00 0.00 0.00 76 1018.0
20260903085805 84 29 0.0 0.0 0.00 0.00 0.00 76 1017.9
20260903085306 83 30 0.0 0.0 0.00 0.00 0.00 77 1017.9
20260903084804 83 30 0.0 0.0 0.00 0.00 0.00 78 1017.9
20260903084304 83 30 0.0 0.0 0.00 0.00 0.00 80 1017.7
20260903083804 83 28 0.0 0.0 0.00 0.00 0.00 80 1017.7
20260903083304 83 28 0.0 0.0 0.00 0.00 0.00 81 1017.8
20260903082805 82 28 0.0 0.0 0.00 0.00 0.00 82 1017.7
20260903081804 81 28 0.0 0.0 0.00 0.00 0.00 83 1017.7
20260903081304 81 28 0.0 0.0 0.00 0.00 0.00 85 1017.7
20260903080305 80 28 0.0 0.0 0.00 0.00 0.00 86 1017.7
20260903075805 80 28 0.0 0.0 0.00 0.00 0.00 86 1017.7
20260903075306 80 28 0.0 0.0 0.00 0.00 0.00 86 1017.7
20260903073804 79 29 0.0 0.0 0.00 0.00 0.00 87 1017.7
20260903073305 78 29 0.0 0.0 0.00 0.00 0.00 87 1017.7
20260903072805 78 29 0.0 0.0 0.00 0.00 0.00 87 1017.6
20260903072307 78 29 0.0 0.0 0.00 0.00 0.00 88 1017.7
20260903071804 78 28 0.0 0.0 0.00 0.00 0.00 88 1017.6
20260903070804 78 28 0.0 0.0 0.00 0.00 0.00 88 1017.5
20260903070305 77 29 0.0 0.0 0.00 0.00 0.00 88 1017.5
20260903065805 77 29 0.0 0.0 0.00 0.00 0.00 89 1017.4
20260903065306 77 28 0.0 0.0 0.00 0.00 0.00 89 1017.4
20260903064804 77 30 0.0 0.0 0.00 0.00 0.00 90 1017.4
20260903064304 76 30 0.0 0.0 0.00 0.00 0.00 90 1017.4
20260903063804 76 30 0.0 0.0 0.00 0.00 0.00 90 1017.3
20260903063304 76 30 0.0 0.0 0.00 0.00 0.00 90 1017.3
20260903062805 76 30 0.0 0.0 0.00 0.00 0.00 90 1017.2
20260903062306 75 30 0.0 0.0 0.00 0.00 0.00 90 1017.2
20260903061804 75 30 0.0 0.0 0.00 0.00 0.00 90 1017.1
20260903060805 76 30 0.0 0.0 0.00 0.00 0.00 91 1017.0
20260903060305 76 30 0.0 0.0 0.00 0.00 0.00 91 1017.0
20260903055805 76 30 0.0 0.0 0.00 0.00 0.00 91 1017.0
20260903055306 76 30 0.0 0.0 0.00 0.00 0.00 91 1016.9
20260903054805 76 30 0.0 0.0 0.00 0.00 0.00 91 1016.8
20260903053804 76 30 0.0 0.0 0.00 0.00 0.00 91 1016.7
20260903052804 76 30 0.0 0.0 0.00 0.00 0.00 91 1016.6
20260903051805 76 30 0.0 0.0 0.00 0.00 0.00 91 1016.4
20260903051304 76 30 0.0 0.0 0.00 0.00 0.00 91 1016.4
20260903050305 76 30 0.0 0.0 0.00 0.00 0.00 90 1016.3
20260903045804 76 30 0.0 0.0 0.00 0.00 0.00 90 1016.4
20260903044304 76 30 0.0 0.0 0.00 0.00 0.00 90 1016.4
20260903043805 76 30 0.0 0.0 0.00 0.00 0.00 90 1016.3
20260903043305 76 30 0.0 0.0 0.00 0.00 0.00 90 1016.4
20260903042804 76 30 0.0 0.0 0.00 0.00 0.00 90 1016.3
20260903042306 76 30 0.0 0.0 0.00 0.00 0.00 90 1016.2
20260903041804 76 30 0.0 0.0 0.00 0.00 0.00 90 1016.1
20260903041305 76 30 0.0 0.0 0.00 0.00 0.00 90 1016.1
20260903040805 76 30 0.0 0.0 0.00 0.00 0.00 90 1016.1
20260903035805 76 30 0.0 0.0 0.00 0.00 0.00 90 1016.1
20260903035306 77 30 0.0 0.0 0.00 0.00 0.00 89 1016.2
20260903034304 77 30 0.0 0.0 0.00 0.00 0.00 89 1016.2
20260903033804 77 30 0.0 0.0 0.00 0.00 0.00 89 1016.2
20260903033305 77 30 0.0 0.0 0.00 0.00 0.00 89 1016.2
20260903032804 77 30 0.0 0.0 0.00 0.00 0.00 89 1016.2
20260903032306 77 30 0.0 0.0 0.00 0.00 0.00 89 1016.1
20260903031805 77 30 0.0 0.0 0.00 0.00 0.00 89 1016.1
20260903030804 77 30 0.0 0.0 0.00 0.00 0.00 89 1016.1
20260903025804 77 30 0.0 0.0 0.00 0.00 0.00 89 1016.1
20260903025306 77 30 0.0 0.0 0.00 0.00 0.00 89 1016.1
20260903024304 77 30 0.0 0.0 0.00 0.00 0.00 89 1016.1
20260903023804 77 30 0.0 0.0 0.00 0.00 0.00 89 1016.1
20260903023304 77 30 0.0 0.0 0.00 0.00 0.00 89 1016.1
20260903022804 77 30 0.0 0.0 0.00 0.00 0.00 89 1016.1
20260903022306 77 30 0.0 0.0 0.00 0.00 0.00 89 1016.1
20260903021805 77 30 0.0 0.0 0.00 0.00 0.00 89 1016.1
20260903021304 77 30 0.0 0.0 0.00 0.00 0.00 89 1016.1
20260903015805 77 30 0.0 0.0 0.00 0.00 0.00 89 1016.2
20260903014804 78 30 0.0 0.0 0.00 0.00 0.00 89 1016.2
20260903013804 78 30 0.0 0.0 0.00 0.00 0.00 89 1016.2
20260903013304 78 30 0.0 0.0 0.00 0.00 0.00 89 1016.2
20260903012804 78 30 0.0 0.0 0.00 0.00 0.00 89 1016.2
20260903012306 78 30 0.0 0.0 0.00 0.00 0.00 89 1016.3
20260903011805 78 30 0.0 0.0 0.00 0.00 0.00 89 1016.3
20260903011305 78 30 0.0 0.0 0.00 0.00 0.00 89 1016.3
20260903010305 78 30 0.0 0.0 0.00 0.00 0.00 89 1016.3
20260903005306 78 30 0.0 0.0 0.00 0.00 0.00 89 1016.4
20260903004804 78 30 0.0 0.0 0.00 0.00 0.00 88 1016.5
20260903003804 78 30 0.0 0.0 0.00 0.00 0.00 88 1016.5
20260903002804 79 30 0.0 0.0 0.00 0.00 0.00 87 1016.5
20260903002306 79 30 0.0 0.0 0.00 0.00 0.00 87 1016.5
20260903001804 79 30 0.0 0.0 0.00 0.00 0.00 87 1016.5
20260903001304 79 30 0.0 0.0 0.00 0.00 0.00 87 1016.6
20260903000804 79 29 0.0 0.0 0.00 0.00 0.00 87 1016.5
20260903000304 79 29 0.0 0.0 0.00 0.00 0.00 87 1016.6
20260902235804 79 29 0.0 0.0 0.00 0.00 0.00 87 1016.6
20260902235306 79 29 0.0 0.0 0.00 0.00 0.00 87 1016.6
20260902234804 79 29 0.0 0.0 0.00 0.00 0.00 87 1016.6
20260902234304 79 29 0.0 0.0 0.00 0.00 0.00 87 1016.6
20260902233803 80 29 0.0 0.0 0.00 0.00 0.00 87 1016.6
20260902233304 79 29 0.0 0.0 0.00 0.00 0.00 87 1016.6
20260902232804 80 29 0.0 0.0 0.00 0.00 0.00 87 1016.6
20260902232306 80 29 0.0 0.0 0.00 0.00 0.00 87 1016.6
20260902231304 80 29 0.0 0.0 0.00 0.00 0.00 87 1016.6
20260902230804 80 29 0.0 0.0 0.00 0.00 0.00 86 1016.7
20260902225805 80 29 0.0 0.0 0.00 0.00 0.00 86 1016.6
20260902225306 80 29 0.0 0.0 0.00 0.00 0.00 86 1016.7
20260902224304 80 29 0.0 0.0 0.00 0.00 0.00 86 1016.7
20260902223804 80 29 0.0 0.0 0.00 0.00 0.00 86 1016.7
20260902223304 80 29 0.0 0.0 0.00 0.00 0.00 86 1016.6
20260902222306 80 29 0.0 0.0 0.00 0.00 0.00 86 1016.6
20260902221804 80 29 0.0 0.0 0.00 0.00 0.00 85 1016.6
20260902221304 80 29 0.0 0.0 0.00 0.00 0.00 85 1016.6
20260902220816 81 29 0.0 0.0 0.00 0.00 0.00 85 1016.6
20260902220305 81 29 0.0 0.0 0.00 0.00 0.00 85 1016.6
20260902215804 81 29 0.0 0.0 0.00 0.00 0.00 85 1016.6
20260902215306 81 29 0.0 0.0 0.00 0.00 0.00 85 1016.6
20260902214804 81 29 0.0 0.0 0.00 0.00 0.00 84 1016.6
20260902214304 81 29 0.0 0.0 0.00 0.00 0.00 84 1016.6
20260902213804 81 29 0.0 0.0 0.00 0.00 0.00 84 1016.6
20260902213303 81 29 0.0 0.0 0.00 0.00 0.00 84 1016.6
20260902212804 81 29 0.0 0.0 0.00 0.00 0.00 84 1016.6
20260902212306 81 30 0.0 0.0 0.00 0.00 0.00 84 1016.5
20260902211804 81 30 0.0 0.0 0.00 0.00 0.00 84 1016.5
20260902211303 81 30 0.0 0.0 0.00 0.00 0.00 84 1016.6
20260902210804 81 30 0.0 0.0 0.00 0.00 0.00 84 1016.5
20260902210304 81 29 0.0 0.0 0.00 0.00 0.00 84 1016.5
20260902205803 81 29 0.0 0.0 0.00 0.00 0.00 84 1016.6
20260902205306 81 28 0.0 0.0 0.00 0.00 0.00 84 1016.5
20260902204804 81 28 0.0 0.0 0.00 0.00 0.00 84 1016.5
20260902203804 81 28 0.0 0.0 0.00 0.00 0.00 84 1016.5
20260902203304 81 26 0.0 0.0 0.00 0.00 0.00 84 1016.3
20260902202306 82 26 0.0 0.0 0.00 0.00 0.00 84 1016.2
20260902201804 82 26 0.0 0.0 0.00 0.00 0.00 84 1016.1
20260902201304 82 26 0.0 0.0 0.00 0.00 0.00 84 1016.0
20260902200804 82 24 0.0 0.0 0.00 0.00 0.00 84 1016.0
20260902200304 82 22 0.0 0.0 0.00 0.00 0.00 84 1015.9
20260902195804 82 23 0.0 0.0 0.00 0.00 0.00 84 1015.9
20260902193304 82 50 0.0 0.0 0.00 0.00 0.00 83 1015.4
20260902192804 82 49 0.0 0.0 0.00 0.00 0.00 83 1015.3
20260902192306 82 12 0.0 0.0 0.00 0.00 0.00 83 1015.2
20260902191804 82 54 0.0 0.0 0.00 0.00 0.00 83 1015.1
20260902191303 82 134 0.0 0.0 0.00 0.00 0.00 83 1015.1
20260902190803 82 134 0.0 0.0 0.00 0.00 0.00 83 1015.1
20260902190304 82 134 0.0 0.0 0.00 0.00 0.00 82 1015.0
20260902185804 82 134 0.0 0.0 0.00 0.00 0.00 82 1014.9
20260902185306 82 134 0.0 0.0 0.00 0.00 0.00 82 1014.7
20260902184804 82 134 0.0 0.0 0.00 0.00 0.00 82 1014.7
20260902184304 82 135 0.0 0.0 0.00 0.00 0.00 82 1014.7
20260902183804 83 135 0.0 0.0 0.00 0.00 0.00 82 1014.6
20260902183303 83 135 0.0 1.7 0.00 0.00 0.00 81 1014.6
20260902182804 83 135 0.0 0.9 0.00 0.00 0.00 81 1014.6
20260902182306 83 135 0.0 2.6 0.00 0.00 0.00 81 1014.6
20260902181804 83 122 0.0 0.9 0.00 0.00 0.00 80 1014.6
20260902181304 83 121 0.0 1.7 0.00 0.00 0.00 80 1014.7
20260902180804 83 120 0.0 1.7 0.00 0.00 0.00 80 1014.8
20260902180304 84 115 0.0 2.6 0.00 0.00 0.00 80 1014.7
20260902175804 84 105 0.9 2.6 0.00 0.00 0.00 79 1014.8
20260902175307 84 64 0.9 4.3 0.00 0.00 0.00 79 1014.8
20260902174804 84 80 0.0 2.6 0.00 0.00 0.00 78 1014.7
20260902173804 84 120 0.0 1.7 0.00 0.00 0.00 78 1014.6
20260902173304 84 109 0.0 2.6 0.00 0.00 0.00 77 1014.6
20260902172803 84 134 0.0 4.3 0.00 0.00 0.00 76 1014.5
20260902172308 84 128 0.9 4.3 0.00 0.00 0.00 76 1014.4
20260902171804 85 127 1.7 4.3 0.00 0.00 0.00 76 1014.4
20260902170803 85 126 0.9 6.1 0.00 0.00 0.00 76 1014.4
20260902170305 85 128 1.7 4.3 0.00 0.00 0.00 75 1014.3
20260902165309 85 127 0.9 2.6 0.00 0.00 0.00 74 1014.3
20260902164805 86 114 0.9 6.1 0.00 0.00 0.00 73 1014.4
20260902164306 86 140 0.9 2.6 0.00 0.00 0.00 74 1014.4
20260902163805 86 135 0.9 5.2 0.00 0.00 0.00 73 1014.4
20260902163305 86 137 1.7 6.1 0.00 0.00 0.00 73 1014.3
20260902162805 86 78 0.9 8.7 0.00 0.00 0.00 73 1014.4
20260902162307 87 119 1.7 5.2 0.00 0.00 0.00 72 1014.4
20260902161805 86 118 0.9 5.2 0.00 0.00 0.00 71 1014.4
20260902161305 87 136 1.7 6.1 0.00 0.00 0.00 71 1014.3
20260902160805 87 116 1.7 4.3 0.00 0.00 0.00 70 1014.3
20260902160305 88 96 0.9 4.3 0.00 0.00 0.00 69 1014.3
20260902155307 88 128 0.9 4.3 0.00 0.00 0.00 68 1014.4
20260902154805 88 134 1.7 4.3 0.00 0.00 0.00 67 1014.3
20260902153804 88 122 1.7 4.3 0.00 0.00 0.00 68 1014.5
20260902153305 88 105 0.9 5.2 0.00 0.00 0.00 68 1014.5
20260902152307 88 86 1.7 4.3 0.00 0.00 0.00 69 1014.5
20260902151805 88 138 0.9 5.2 0.00 0.00 0.00 70 1014.6
20260902151305 88 117 1.7 4.3 0.00 0.00 0.00 69 1014.5
20260902150305 88 118 0.9 6.1 0.00 0.00 0.00 70 1014.6
20260902145806 88 125 1.7 6.1 0.00 0.00 0.00 70 1014.6